Regional Weather Roundup
Issued by NWS Charleston, SC

Current Version | Previous Version | Graphics & Text | Print | Product List | Glossary On
Versions: 1 2 3 4 5 6 7 8 9 10 11 12 13 14 15 16 17 18 19 20 21 22 23 24 25 26 27 28 29 30 31 32 33 34 35 36 37 38 39 40 41 42 43 44 45 46 47 48 49 50
000 ASUS42 KCHS 021025 RWRCHS REGIONAL WEATHER ROUNDUP NATIONAL WEATHER SERVICE CHARLESTON SC 600 AM EDT THU OCT 02 2014 NOTE: "FAIR" INDICATES FEW OR NO CLOUDS BELOW 12,000 FEET WITH NO SIGNIFICANT WEATHER AND/OR OBSTRUCTIONS TO VISIBILITY. NOT ALL STATIONS ARE QUALITY CONTROLLED BY THE NATIONAL WEATHER SERVICE. USE DATA WITH CAUTION...ESPECIALLY DEWPOINT OBSERVATIONS. SCZ027-030-031-034>040-042>050-021100- ...SOUTH CAROLINA... CITY SKY/WX TMP DP RH WIND PRES REMARKS N CHARLESTON CLEAR 65 63 93 CALM 30.05R WATERFRONT PRK N/A 70 N/A N/A CALM N/A FORT JOHNSON NOT AVBL MOUNT PLEASANT FAIR 63 63 100 CALM 30.06R FOG JOHNS ISLAND SUNNY 64 64 100 CALM 30.06S PINOPOLIS N/A 72 68 88 MISG 29.98S MONCKS CORNER FAIR 63 63 100 CALM 30.06R FOG SUMMERVILLE FAIR 61 61 100 CALM 30.07R BEAUFORT MCAS CLEAR 64 62 93 CALM 30.05R BEAUFORT ARPT FAIR 68 68 100 CALM 30.05R FOG HILTON HEAD IS NOT AVBL GEORGETOWN NOT AVBL WALTERBORO SUNNY 61 N/A N/A CALM 30.08R ORANGEBURG FOG 62 60 93 CALM 30.07R VSB 1/2 BARNWELL FOG 61 61 100 CALM 30.07R VSB 1/4 AIKEN FAIR 61 61 100 CALM 30.10S MANNING FAIR 61 N/A N/A CALM 30.06R KINGSTREE NOT AVBL COLUMBIA CLEAR 65 61 87 CALM 30.06R SUMTER CLEAR 63 60 92 CALM 30.05R FLORENCE CLEAR 63 61 93 CALM 30.06R MYRTLE BEACH CLEAR 64 61 88 CALM 30.06R N MYRTLE BEACH CLEAR 64 63 96 CALM 30.07R FOG $$ GAZ063-065-086>088-099>101-113>116-118-119-134-136>141-150-021100- ...GEORGIA... CITY SKY/WX TMP DP RH WIND PRES REMARKS SAVANNAH ARPT PTCLDY 65 62 90 CALM 30.05R HUNTER AAF CLEAR 66 66 100 CALM 30.03R FORT STEWART PTCLDY 61 59 94 CALM 30.04R STATESBORO NOT AVBL SYLVANIA SUNNY 63 63 99 CALM 30.07R FOG CLAXTON FAIR 61 61 100 CALM 30.06R FOG THOMSON CLEAR 63 63 100 CALM 30.11S AUGUSTA-BUSH FOG 57 57 100 CALM 30.06S VSB 1/2 AUGUSTA-DANIEL CLEAR 66 64 93 SE3 30.07R SWAINSBORO FAIR 63 63 100 CALM 30.07R VIDALIA CLEAR 64 64 100 CALM 30.06R ALMA FOG 63 62 97 CALM 30.05R VSB 1 WAYCROSS MOCLDY 69 69 100 CALM 30.04R FOG JESUP FAIR 68 66 94 CALM 30.04S BRUNSWICK PTCLDY 68 66 94 CALM 30.04R SAINT SIMONS CLOUDY 71 69 93 CALM 30.02R $$ SCZ027-028-034-036>038-045-046-048>050-GAZ119-141-021100- ...LAKE AND SUPPLEMENTAL COASTAL OBSERVATIONS... STATION/POSITION TIME TEMP WIND PRES WAVE SWELL AIR SEA DIR/SP/G HT/PER HT/PER/DIR (UTC) (F) (DEG/KT/KT) (MB) (FT/S) (FT/S/D) UPR LAKE MARION NOT AVBL WINYAH BAY 1000 66 CALM 1017.0S LAKE MURRAY 1000 71 240/ 4/ 6 1017.6R ACE BASIN NERRS 1000 65 CALM 1017.0S FORT PULASKI 1000 70 340/ 3/ 4 1017.6R SAPELO ISLAND NOT AVBL $$ ANZ835-935-AMZ111-154-330-350-352-354-374-450-454-472-021100- ...C-MAN AND BUOY OBSERVATIONS... STATION/POSITION TIME TEMP WIND PRES WAVE SWELL AIR SEA DIR/SP/G HT/PER HT/PER/DIR (UTC) (F) (DEG/KT/KT) (MB) (FT/S) (FT/S/D) FOLLY BEACH CMAN 1000 69 330/ 2/ 3 1018.0R BUOY 41004 1000 78 81 80/ 8/ 10 1016.8R 2/ 8 2/ 8 BUOY 41008 1000 78 78 60/ 8/ 10 1016.6R 2/ 8 2/ 80/ 8 5E ST. MARYS GA 1000 79 N/A 2/ 4 FRYING PAN BUOY NOT AVBL BUOY 41025 1000 69 360/ 10/ 12 1017.5R 3/ 7 2/ 40/ 7 CAPE LOOKOUT NC 1000 69 10/ 5/ 6 1017.9R BUOY 41002 0941 77 80 60/ 12/ 14 1016.0R 3/ 7 2/ 20/ 7 BUOY 41010 1000 80 84 70/ 8/ 10 1014.7R 3/ 8 3/ 30/ 8 BUOY 41012 NOT AVBL ST AUGUSTINE FL 1000 79 30/ 6/ 7 1016.2R CAPERS NEARSHORE 0900 74 20/ 6/ 6 N/A FRIPP NEARSHORE NOT AVBL $$

USA.gov is the U.S. government's official web portal to all federal, state and local government web resources and services.